This is the latest recevied weather packets stored in our database for station/object NE1CU. If no packets are shown the sender has not sent any weather packets the latest 10 day(s).
| Time | Temp. | Humidity | Pressure | Rain* | Wind** | Luminosity | Snow |
|---|---|---|---|---|---|---|---|
| 1778190123 | 17.78° C | 31% | 1006.9 hPa | 0 mm | - | 77 W/m² | - |
| 1778189818 | 17.78° C | 30% | 1007 hPa | 0 mm | - | 99 W/m² | - |
| 1778189516 | 19.44° C | 29% | 1007.1 hPa | 0 mm | - | 76 W/m² | - |
| 1778189212 | 18.89° C | 30% | 1006.8 hPa | 0 mm | - | 348 W/m² | - |
| 1778188909 | 18.89° C | 29% | 1006.9 hPa | 0 mm | - | 357 W/m² | - |
| 1778188606 | 18.89° C | 28% | 1006.9 hPa | 0 mm | - | 376 W/m² | - |
| 1778188301 | 18.33° C | 30% | 1006.9 hPa | 0 mm | - | 348 W/m² | - |
| 1778187999 | 17.78° C | 30% | 1006.9 hPa | 0 mm | - | 446 W/m² | - |
| 1778187695 | 18.33° C | 30% | 1007 hPa | 0 mm | - | 488 W/m² | - |
| 1778187392 | 18.89° C | 30% | 1007 hPa | 0 mm | - | 140 W/m² | - |
| 1778187089 | 19.44° C | 28% | 1007 hPa | 0 mm | - | 216 W/m² | - |
| 1778186785 | 19.44° C | 29% | 1006.8 hPa | 0 mm | - | 514 W/m² | - |
| 1778186483 | 19.44° C | 29% | 1006.7 hPa | 0 mm | - | 515 W/m² | - |
| 1778186181 | 19.44° C | 30% | 1006.9 hPa | 0 mm | - | 508 W/m² | - |
| 1778185878 | 18.89° C | 28% | 1006.6 hPa | 0 mm | - | 538 W/m² | - |
| 1778185573 | 18.89° C | 28% | 1006.8 hPa | 0 mm | - | 554 W/m² | - |
| 1778185270 | 18.89° C | 29% | 1006.6 hPa | 0 mm | - | 574 W/m² | - |
| 1778184965 | 19.44° C | 27% | 1006.8 hPa | 0 mm | - | 592 W/m² | - |
| 1778184662 | 18.89° C | 29% | 1006.9 hPa | 0 mm | - | 604 W/m² | - |
| 1778184357 | 18.89° C | 28% | 1006.9 hPa | 0 mm | - | 624 W/m² | - |
| 1778184054 | 18.89° C | 29% | 1006.9 hPa | 0 mm | - | 640 W/m² | - |
| 1778183751 | 18.89° C | 29% | 1007.1 hPa | 0 mm | - | 657 W/m² | - |
| 1778183448 | 18.89° C | 29% | 1007.1 hPa | 0 mm | - | 674 W/m² | - |
| 1778183144 | 18.89° C | 27% | 1007.1 hPa | 0 mm | - | 686 W/m² | - |
| 1778182840 | 18.89° C | 27% | 1007.2 hPa | 0 mm | - | 704 W/m² | - |
* Rain latest hour (hover to see other rain measurements)
** Current wind speed in m/s (hover to see current wind gust speed)